ROMMA est une association bénévole à but non lucratif. Votre soutien est indispensable : ADHERER à ROMMA ou FAIRE un DON

St-Christophe/Guiers - Berland - (38, Isère)

Massif de la Chartreuse (533 m)   Longitude: 05° 46' 44" E   Latitude: 45° 25' 43" N Station partenaire n°32
 

Détail journalier du     <<     >>

Température Precipitation Humidité Pression Vent Dir Rafale Dir. rafale Ensol.
Heure (°C) (mm) (%) (hPa) (km/h) (km/h) (min)
01:00 4.4096101206E0
02:00 3.7096101203SO0
03:00 4.3096101205ENE0
04:00 4.2096101202NE0
05:00 4.1096101202NE0
06:00 4.40.296101200---0
07:00 4.009610111---10ENE0
08:00 3.709510122ENE16E0
09:00 4.2096101203SSO40
10:00 4.709510122SSO6SSO40
11:00 6.5092101205O0
12:00 7.908410123SO6SO0
13:00 8.508210123SO10SO0
14:00 10.707510123SSO8NNO5
15:00 10.706910114SO11OSO0
16:00 11.506610114SSO13SO0
17:00 11.006710115ONO18O20
18:00 12.106610113O11ONO15
19:00 11.506710113SO10O15
20:00 10.4076101106SO15
21:00 9.107710113ENE10ENE0
22:00 8.007910116ENE15ENE0
23:00 6.408410123E8ENE0
minuit 6.008410112ENE10NE0

Graphique du 08-04-2019

 

Serveur OMMA